Burlington, IA

9:08 PM CST on January 22, 2018 (GMT -0600)
Burlington Regional

Weather History for KBRL - February, 2014

Change the Weather History Date:

Friday, February 14, 2014

  Actual Average Record
Temperature  
Mean Temperature 14 °F 30 °F  
Max Temperature 21 °F 38 °F 68 °F (1954)
Min Temperature 6 °F 21 °F -9 °F (1905)
Degree Days  
Heating Degree Days 51 35  
Month to date heating degree days 782 517  
Since 1 July heating degree days 4757 3918  
Cooling Degree Days 0 0  
Month to date cooling degree days 0 0  
Year to date cooling degree days 0 0  
Moisture  
Dew Point 9 °F    
Average Humidity 78    
Maximum Humidity 88    
Minimum Humidity 67    
Precipitation  
Precipitation 0.17 in 0.05 in 0.78 in (1990)
Month to date precipitation 0.94 0.70  
Year to date precipitation 2.02 1.94  
Sea Level Pressure  
Sea Level Pressure 29.84 in    
Wind  
Wind Speed 10 mph (NNW)    
Max Wind Speed 20 mph    
Max Gust Speed 26 mph    
Visibility 5 miles    
Events Fog , Snow    
T = Trace of Precipitation, MM = Missing Value Source: NWS Daily Summary

Daily Weather History Graph

Daily Weather History Graph

Search for Another Location

Airport or City:

Trip Planner

Search our weather history database for the weather conditions in past years. The results will help you decide how hot, cold, wet, or windy it might be!

Date:

Astronomy

Feb. 14, 2014 Rise Set
Actual Time 6:59 AM CST 5:38 PM CST
Civil Twilight 6:31 AM CST 6:06 PM CST
Nautical Twilight 5:59 AM CST 6:38 PM CST
Astronomical Twilight 5:27 AM CST 7:10 PM CST
Moon 5:42 PM CST (2/14) 6:26 AM CST (2/14)
Length of Visible Light 11h 34m
Length of Day
10h 38m
Full, 100% of the Moon is Illuminated
Feb 14
Full
Feb 14
Full
Feb 22
Last Quarter
Mar 1
New
Mar 8
First Quarter

Hourly Weather History & Observations

Time (CST) Temp. Windchill Dew Point Humidity Pressure Visibility Wind Dir Wind Speed Gust Speed Precip Events Conditions
12:53 AM 19.0 °F 9.0 °F 10.0 °F 68% 29.76 in 10.0 mi NW 8.1 mph - N/A   Clear
1:53 AM 18.0 °F 9.8 °F 9.0 °F 68% 29.76 in 10.0 mi NNW 5.8 mph - N/A   Partly Cloudy
2:53 AM 16.0 °F 7.4 °F 8.1 °F 71% 29.74 in 10.0 mi NNW 5.8 mph - N/A   Scattered Clouds
3:53 AM 17.1 °F 10.0 °F 9.0 °F 71% 29.76 in 10.0 mi WNW 4.6 mph - N/A   Overcast
4:53 AM 16.0 °F 7.4 °F 9.0 °F 74% 29.77 in 10.0 mi NW 5.8 mph - N/A   Mostly Cloudy
5:53 AM 16.0 °F 6.3 °F 9.0 °F 74% 29.75 in 10.0 mi NNE 6.9 mph - N/A   Overcast
6:21 AM 16.0 °F 10.4 °F 9.0 °F 74% 29.73 in 2.5 mi NNE 3.5 mph - 0.00 in Snow Light Snow
6:29 AM 16.0 °F - 10.0 °F 77% 29.72 in 1.0 mi Calm Calm - 0.00 in Snow Light Snow
6:39 AM 16.0 °F 8.8 °F 10.9 °F 81% 29.72 in 0.8 mi NE 4.6 mph - 0.00 in Snow Light Snow
6:53 AM 15.1 °F 4.2 °F 10.9 °F 84% 29.74 in 0.8 mi NE 8.1 mph - 0.00 in Snow Light Snow
7:16 AM 15.1 °F 5.2 °F 12.0 °F 88% 29.71 in 1.0 mi NE 6.9 mph - 0.02 in Snow Light Snow
7:40 AM 15.1 °F 1.8 °F 12.0 °F 88% 29.72 in 0.8 mi NE 11.5 mph - 0.02 in Snow Light Snow
7:51 AM 15.8 °F 2.7 °F 10.4 °F 79% 29.74 in 0.5 mi NNE 11.5 mph - 0.03 in Fog , Snow Snow
7:53 AM 15.1 °F 1.8 °F 10.9 °F 84% 29.77 in 0.5 mi NNE 11.5 mph - 0.04 in Fog , Snow Snow
8:06 AM 15.1 °F 1.8 °F 10.9 °F 84% 29.76 in 0.2 mi North 11.5 mph - 0.01 in Fog , Snow Snow
8:45 AM 15.1 °F 2.5 °F 12.0 °F 88% 29.78 in 0.5 mi North 10.4 mph - 0.04 in Fog , Snow Snow
8:53 AM 15.1 °F 3.3 °F 12.0 °F 88% 29.81 in 0.8 mi North 9.2 mph - 0.05 in Snow Light Snow
9:00 AM 15.1 °F 4.2 °F 12.0 °F 88% 29.79 in 0.8 mi North 8.1 mph - 0.00 in Snow Light Snow
9:22 AM 16.0 °F 3.6 °F 12.0 °F 84% 29.80 in 0.8 mi North 10.4 mph - 0.02 in Snow Light Snow
9:44 AM 15.1 °F 3.3 °F 12.0 °F 88% 29.81 in 0.5 mi NNW 9.2 mph - 0.03 in Fog , Snow Snow
9:53 AM 15.1 °F 1.1 °F 10.9 °F 84% 29.83 in 0.5 mi North 12.7 mph - 0.04 in Fog , Snow Snow
10:26 AM 15.1 °F 1.8 °F 10.9 °F 84% 29.82 in 0.2 mi NNW 11.5 mph - 0.02 in Fog , Snow Heavy Snow
10:34 AM 16.0 °F 5.3 °F 10.9 °F 81% 29.82 in 0.5 mi North 8.1 mph - 0.03 in Snow Snow
10:44 AM 16.0 °F 4.4 °F 10.9 °F 81% 29.83 in 1.0 mi North 9.2 mph - 0.03 in Snow Light Snow
10:53 AM 17.1 °F 6.6 °F 10.9 °F 77% 29.87 in 1.2 mi NNW 8.1 mph - 0.03 in Snow Light Snow
11:30 AM 17.1 °F 5.8 °F 12.0 °F 81% 29.83 in 0.8 mi North 9.2 mph - 0.01 in Snow Light Snow
11:40 AM 17.1 °F 4.3 °F 12.0 °F 81% 29.83 in 1.5 mi NNW 11.5 mph - 0.01 in Snow Light Snow
11:51 AM 17.6 °F 4.3 °F 10.4 °F 73% 29.84 in 2.5 mi NNW 12.7 mph - 0.01 in Snow Light Snow
11:53 AM 17.1 °F 5.0 °F 10.9 °F 77% 29.87 in 2.5 mi NNW 10.4 mph - 0.01 in Snow Light Snow
11:59 AM 17.1 °F 5.0 °F 10.9 °F 77% 29.84 in 3.0 mi NNW 10.4 mph - 0.00 in Snow Light Snow
12:53 PM 18.0 °F 4.2 °F 10.9 °F 74% 29.86 in 5.0 mi NNW 13.8 mph - 0.00 in Snow Light Snow
1:53 PM 19.0 °F 5.6 °F 10.0 °F 68% 29.88 in 10.0 mi NW 13.8 mph - 0.00 in   Overcast
2:53 PM 19.0 °F 5.0 °F 10.0 °F 68% 29.91 in 10.0 mi NW 15.0 mph 21.9 mph N/A   Scattered Clouds
3:53 PM 16.0 °F 1.1 °F 8.1 °F 71% 29.94 in 10.0 mi NW 15.0 mph 25.3 mph N/A   Partly Cloudy
4:53 PM 16.0 °F 1.7 °F 7.0 °F 68% 29.96 in 10.0 mi NW 13.8 mph 25.3 mph N/A   Clear
5:53 PM 14.0 °F -2.0 °F 6.1 °F 71% 29.99 in 10.0 mi NW 16.1 mph 24.2 mph N/A   Clear
6:53 PM 12.9 °F -2.2 °F 5.0 °F 71% 30.03 in 10.0 mi NW 13.8 mph - N/A   Clear
7:53 PM 10.9 °F -4.1 °F 3.9 °F 73% 30.04 in 10.0 mi NW 12.7 mph - N/A   Clear
8:53 PM 10.0 °F -3.7 °F 3.9 °F 76% 30.05 in 10.0 mi WNW 10.4 mph - N/A   Clear
9:53 PM 9.0 °F -5.9 °F 3.0 °F 77% 30.09 in 10.0 mi NW 11.5 mph - N/A   Clear
10:53 PM 7.0 °F -3.3 °F 1.9 °F 80% 30.09 in 10.0 mi NW 5.8 mph - N/A   Clear
11:53 PM 6.1 °F -5.6 °F 1.0 °F 80% 30.12 in 10.0 mi NW 6.9 mph - N/A   Clear